Flag for U.S.A. Weather past 2 weeks in Lawrence, Kansas, U.S.A.

Now
37 °F

Clear.


Feels Like: 32 °F
Forecast: 35 / 45 °F
Wind: 7 mph from Southeast

Location: Lawrence Municipal Airport

Current Time: Dec 20, 2014 at 7:35:01 PM

Latest Report: Dec 20, 2014 at 6:52 PM


Visibility: 8 mi

Pressure: 30.15 "Hg

Humidity: 89%

Dew point: 34 °F

Location of LawrenceLocation

Historic Weather in Lawrence — Graph

°F

Lawrence temperature yesterday

Maximum temperature yesterday: 34 °F (at 12:52 PM)
Minimum temperature yesterday: 31 °F (at 12:52 AM)
Average temperature yesterday: 32 °F

Past Weeks' High & Low Weather Summary

 TemperatureHumidityPressure
High62 °F (Dec 14, 1:52 PM)97% (Dec 5, 5:03 PM)30.58 "Hg (Dec 5, 5:03 PM)
Low23 °F (Dec 17, 5:52 AM)51% (Dec 8, 2:52 PM)29.54 "Hg (Dec 15, 6:52 AM)
Average38 °F85%30.23 "Hg
* Reported Dec 5 5:03 PM — Dec 20 5:52 PM, Lawrence, Weather by CustomWeather, © 2014

Note: Actual official high and low records may vary slightly from our data, if they occured in-between our weather recording intervals... More about our weather records

Advertising

Lawrence weather history for previous 24 hours

 ConditionsComfort  
Time TempWeatherWind HumidityBarometerVisibility
5:52 PM
Dec 20
40 °FClear.8 mph83%30.14 "Hg9 mi
4:52 PM44 °FOvercast.8 mph79%30.12 "Hg9 mi
3:52 PM48 °FOvercast.10 mph68%30.12 "Hg10 mi
2:52 PM48 °FOvercast.10 mph68%30.11 "Hg9 mi
1:52 PM47 °FPassing clouds.12 mph69%30.12 "Hg9 mi
12:52 PM46 °FSunny.12 mph71%30.14 "Hg9 mi
11:52 AM44 °FSunny.10 mph73%30.16 "Hg9 mi
10:52 AM42 °FSunny.10 mph73%30.18 "Hg8 mi
9:52 AM38 °FSunny.14 mph83%30.19 "Hg8 mi
8:52 AM35 °FFog.10 mph85%30.19 "Hg6 mi
7:52 AM33 °FFog.10 mph88%30.20 "Hg6 mi
6:52 AM33 °FPassing clouds.8 mph85%30.19 "Hg8 mi
5:52 AM34 °FOvercast.7 mph85%30.20 "Hg8 mi
4:52 AM34 °FOvercast.6 mph85%30.21 "Hg9 mi
3:52 AM33 °FOvercast.6 mph85%30.21 "Hg9 mi
3:03 AM33 °FOvercast.5 mph85%30.20 "Hg9 mi
2:52 AM33 °FOvercast.8 mph85%30.22 "Hg9 mi
1:52 AM33 °FOvercast.8 mph85%30.22 "Hg10 mi
12:52 AM33 °FOvercast.5 mph82%30.23 "Hg10 mi
11:52 PM
Dec 19
33 °FOvercast.5 mph82%30.24 "Hg10 mi
10:52 PM33 °FOvercast.8 mph82%30.24 "Hg10 mi
9:52 PM33 °FOvercast.8 mph82%30.23 "Hg10 mi
8:52 PM33 °FOvercast.5 mph82%30.24 "Hg10 mi
7:52 PM33 °FOvercast.3 mph88%30.24 "Hg8 mi
Weather by CustomWeather, © 2014

See weather overviewHow to use our weather pages